Home   Weather   Santa Rosa   Past weeks

Flag for USA Past Weather in Santa Rosa, California, USA — Yesterday and Last 2 Weeks

Now
44 °F

Clear.


Feels Like: 43 °F
Forecast: 41 / 61 °F
Wind: 3 mph from West

Location: Santa Rosa Sonoma County Airport

Current Time: Dec 3, 2016 at 10:18:49 pm

Latest Report: Dec 3, 2016 at 9:53 pm


Visibility: 8 mi

Pressure: 30.16 "Hg

Humidity: 96%

Dew Point: 43 °F

Location of Santa RosaLocation

Past Weather in Santa Rosa — Graph

°F

Santa Rosa Temperature Yesterday

Maximum temperature yesterday: 62 °F (at 12:53 pm)
Minimum temperature yesterday: 38 °F (at 5:53 am)
Average temperature yesterday: 49 °F

High & Low Weather Summary for the Past Weeks

 TemperatureHumidityPressure
High65 °F (Dec 3, 2:53 pm)100% (Nov 19, 4:53 am)30.36 "Hg (Nov 19, 4:53 am)
Low34 °F (Dec 1, 5:53 am)33% (Dec 2, 10:53 am)29.78 "Hg (Nov 26, 2:53 am)
Average49 °F84%30.06 "Hg
* Reported Nov 18 8:53 pm — Dec 3 8:53 pm, Santa Rosa, Weather by CustomWeather, © 2016

Note: Actual official high and low records may vary slightly from our data, if they occured in-between our weather recording intervals... More about our weather records

Advertising

Santa Rosa Weather History for the Previous 24 Hours

Scroll right to see more
 ConditionsComfort  
Time TempWeatherWind HumidityBarometerVisibility
8:53 pm
Sat, Dec 3
46 °FClear.No wind96%30.15 "Hg10 mi
7:53 pm49 °FClear.3 mph93%30.15 "Hg10 mi
6:53 pm51 °FClear.No wind86%30.15 "Hg10 mi
5:53 pm55 °FClear.No wind77%30.15 "Hg10 mi
4:53 pm58 °FPassing clouds.5 mph70%30.14 "Hg10 mi
3:53 pm64 °FScattered clouds.3 mph52%30.15 "Hg10 mi
2:53 pm65 °FScattered clouds.5 mph49%30.15 "Hg10 mi
1:53 pm64 °FSunny.No wind50%30.16 "Hg10 mi
12:53 pm62 °FSunny.No wind52%30.19 "Hg10 mi
11:53 am59 °FSunny.No wind56%30.22 "Hg10 mi
10:53 am55 °FSunny.3 mph64%30.25 "Hg10 mi
9:53 am51 °FScattered clouds.No wind71%30.27 "Hg10 mi
8:53 am45 °FScattered clouds.No wind90%30.26 "Hg10 mi
7:53 am39 °FSunny.No wind96%30.25 "Hg10 mi
6:53 am36 °FPassing clouds.No wind97%30.24 "Hg10 mi
5:53 am36 °FClear.3 mph97%30.23 "Hg10 mi
4:53 am37 °FClear.No wind96%30.22 "Hg10 mi
3:53 am39 °FClear.3 mph96%30.21 "Hg10 mi
2:53 am39 °FClear.5 mph96%30.21 "Hg10 mi
1:53 am39 °FClear.5 mph96%30.20 "Hg10 mi
10:53 pm
Fri, Dec 2
42 °FClear.3 mph92%30.20 "Hg10 mi
Weather by CustomWeather, © 2016

See weather overviewHow to use our weather pages